1487894401.08,31803,9.0,72008.0,-3.25,-23.65,-23.95,0,*52
1487894402.33,31804,9.0,71962.3,-3.25,-23.39,-23.69,0,*5F
1487894403.59,31805,9.0,72004.3,-3.25,-23.53,-23.79,0,*53
1487894404.87,31806,9.0,72000.0,-3.25,-23.29,-23.49,0,*5E
1487894406.11,31807,9.0,72012.0,-3.25,-22.67,-22.93,0,*52
1487894407.31,31808,9.0,72020.8,-3.23,-23.59,-23.89,0,*5D
1487894408.59,31809,9.0,72018.0,-3.25,-23.65,-23.95,0,*58
1487894409.84,31810,9.0,72038.3,-3.23,-23.23,-23.49,0,*55
1487894411.12,31811,9.0,71990.3,-3.25,-23.19,-23.33,0,*56
1487894412.33,31812,9.0,72002.8,-3.23,-22.53,-22.83,0,*56
1487894413.56,31813,9.0,72032.3,-3.23,-23.23,-23.59,0,*57
1487894414.84,31814,9.0,72006.0,-3.25,-23.33,-23.65,0,*58
1487894416.08,31815,9.0,72030.0,-3.23,-22.77,-23.13,0,*5F
1487894417.31,31816,9.0,72008.8,-3.23,-22.93,-23.33,0,*54
1487894418.56,31817,9.0,72036.0,-3.19,-23.03,-23.29,0,*5F
1487894419.83,31818,9.0,71992.5,-3.21,-22.83,-23.23,0,*58
1487894421.06,31819,9.0,72004.0,-3.19,-22.63,-23.03,0,*5E
1487894422.3,31820,9.0,71968.0,-3.19,-22.47,-22.87,0,*5F
1487894423.56,31821,9.0,71984.5,-3.17,-22.17,-22.57,0,*58
1487894424.8,31822,9.0,71950.8,-3.17,-22.11,-22.57,0,*5D
1487894426.08,31823,9.0,71948.0,-3.13,-22.21,-22.73,0,*5D
1487894427.33,31824,9.0,71932.0,-3.13,-22.21,-22.67,0,*5F
1487894428.56,31825,9.0,71930.3,-3.13,-22.03,-22.27,0,*5A
1487894429.79,31826,9.0,71930.3,-3.13,-22.07,-22.53,0,*5E
1487894431.01,31827,9.0,71974.3,-3.11,-22.53,-22.97,0,*54
1487894432.24,31828,9.0,71954.5,-3.09,-22.67,-23.09,0,*53
1487894433.51,31829,9.0,71916.5,-3.09,-22.31,-22.93,0,*53
1487894434.77,31830,9.0,71928.8,-3.07,-22.77,-23.29,0,*57
1487894436.03,31831,9.0,71964.5,-3.09,-23.29,-23.75,0,*5B
1487894437.24,31832,9.0,71920.3,-3.07,-22.83,-23.43,0,*52
1487894438.47,31833,9.0,71972.3,-3.07,-23.43,-23.95,0,*55
1487894439.71,31834,9.0,71944.3,-3.07,-22.93,-23.29,0,*59
1487894440.99,31835,9.0,72016.8,-3.09,-23.29,-23.95,0,*51
1487894442.23,31836,9.0,71992.5,-3.09,-22.53,-22.97,0,*5D
1487894443.47,31837,9.0,71954.8,-3.07,-22.17,-22.67,0,*5D
1487894444.75,31838,9.0,71926.3,-3.05,-21.97,-22.47,0,*59
1487894446.0,31839,9.0,71892.8,-3.03,-22.53,-23.03,0,*54
1487894447.25,31840,9.0,71930.3,-3.03,-22.73,-23.33,0,*5B
1487894448.49,31841,9.0,71986.5,-3.01,-22.41,-22.83,0,*53
1487894449.73,31842,9.0,72002.5,-3.03,-22.53,-23.03,0,*58
1487894450.99,31843,9.0,71972.5,-3.01,-22.67,-23.19,0,*57
1487894452.23,31844,9.0,71996.3,-3.03,-23.09,-23.65,0,*50
1487894453.48,31845,9.0,72040.8,-3.03,-23.33,-23.95,0,*57
1487894454.72,31846,9.0,72034.0,-3.03,-22.97,-23.49,0,*5A
1487894455.95,31847,9.0,72000.3,-3.03,-22.67,-23.19,0,*51
1487894457.19,31848,9.0,72020.3,-3.01,-22.83,-23.39,0,*54
1487894458.44,31849,9.0,72038.5,-3.03,-23.23,-23.95,0,*5A
1487894459.67,31850,9.0,72032.8,-3.03,-23.49,-24.05,0,*50
1487894460.96,31851,9.0,72022.8,-3.01,-23.23,-23.85,0,*50
1487894462.24,31852,9.0,72040.5,-3.01,-23.33,-23.95,0,*53
1487894463.5,31853,9.0,72022.5,-3.03,-23.33,-23.99,0,*5C
1487894464.75,31854,9.0,72004.8,-3.03,-23.03,-23.65,0,*5B
1487894465.98,31855,9.0,71968.3,-3.03,-22.87,-23.53,0,*52
1487894467.24,31856,9.0,71992.3,-3.03,-23.33,-23.95,0,*55
1487894468.5,31857,9.0,72010.3,-3.03,-23.53,-24.21,0,*5A
1487894469.76,31858,9.0,71998.8,-3.03,-23.53,-24.15,0,*52
1487894471.02,31859,9.0,71994.0,-3.01,-23.65,-24.35,0,*56
1487894472.25,31860,9.0,72006.0,-3.01,-23.79,-24.35,0,*51
1487894473.46,31861,9.0,72004.3,-3.03,-23.79,-24.47,0,*57
1487894474.69,31862,9.0,72006.5,-3.05,-23.89,-24.57,0,*5C
1487894475.92,31863,9.0,71996.5,-3.05,-24.05,-24.57,0,*5E
1487894477.18,31864,9.0,71988.3,-3.05,-24.05,-24.67,0,*5A
1487894478.41,31865,9.0,71994.5,-3.05,-24.05,-24.57,0,*58
1487894479.64,31866,9.0,72002.8,-3.05,-23.75,-24.35,0,*5F
1487894480.88,31867,9.0,71984.5,-3.07,-23.59,-24.25,0,*53
1487894482.14,31868,9.0,71964.5,-3.05,-23.75,-24.25,0,*50
1487894483.4,31869,9.0,71962.5,-3.05,-23.59,-24.21,0,*5B
1487894484.63,31870,9.0,71952.8,-3.07,-23.59,-24.15,0,*56
1487894485.86,31871,9.0,71948.8,-3.05,-23.39,-24.05,0,*52
1487894487.09,31872,9.0,71956.0,-3.07,-23.49,-24.05,0,*54
1487894488.32,31873,9.0,71960.3,-3.07,-23.49,-24.05,0,*55
1487894489.58,31874,9.0,71950.5,-3.03,-23.49,-24.15,0,*57
1487894490.87,31875,9.0,71946.5,-3.05,-23.53,-24.21,0,*5C
1487894492.1,31876,9.0,71968.8,-3.07,-23.75,-24.41,0,*5F
1487894493.34,31877,9.0,71966.5,-3.07,-23.79,-24.25,0,*50
1487894494.55,31878,9.0,71976.8,-3.07,-23.89,-24.61,0,*50
1487894495.79,31879,9.0,71990.0,-3.07,-24.11,-24.61,0,*57
1487894497.05,31880,9.0,72002.0,-3.07,-24.11,-24.71,0,*50
1487894498.34,31881,9.0,72014.8,-3.05,-24.11,-24.71,0,*53
1487894499.6,31882,9.0,72010.8,-3.09,-24.11,-24.77,0,*5A
1487894500.84,31883,9.0,72008.5,-3.11,-24.21,-24.77,0,*51
1487894502.08,31884,9.0,72006.5,-3.09,-23.79,-24.47,0,*56
1487894503.32,31885,9.0,71996.5,-3.11,-23.95,-24.61,0,*58
1487894504.55,31886,9.0,71996.8,-3.11,-23.65,-24.51,0,*57
1487894505.81,31887,9.0,72004.5,-3.11,-24.21,-24.83,0,*5E
1487894507.05,31888,9.0,71994.5,-3.11,-23.99,-24.77,0,*5E
1487894508.28,31889,9.0,72006.8,-3.09,-23.89,-24.61,0,*50
1487894509.54,31890,9.0,71994.0,-3.11,-24.11,-24.67,0,*51
1487894510.78,31891,9.0,72006.5,-3.11,-24.11,-24.77,0,*51
1487894512.03,31892,9.0,72008.0,-3.11,-24.11,-24.67,0,*53
1487894513.29,31893,9.0,71978.0,-3.11,-23.53,-24.11,0,*52
1487894514.57,31894,9.0,71992.5,-3.13,-23.33,-23.99,0,*56
1487894515.82,31895,9.0,72016.0,-3.17,-23.89,-24.67,0,*54
1487894517.08,31896,9.0,71996.3,-3.17,-24.05,-24.71,0,*53
1487894518.34,31897,9.0,72006.3,-3.13,-23.99,-24.77,0,*52
1487894519.62,31898,9.0,72016.3,-3.13,-23.95,-24.67,0,*50
1487894520.91,31899,9.0,72022.3,-3.17,-23.99,-24.71,0,*5E
1487894522.17,31900,9.0,72014.0,-3.17,-24.05,-24.67,0,*5A
1487894523.42,31901,9.0,72000.8,-3.17,-24.05,-24.67,0,*5B
1487894524.7,31902,9.0,71992.5,-3.17,-24.15,-24.83,0,*53
1487894525.99,31903,9.0,71980.3,-3.17,-24.15,-24.83,0,*52
1487894527.22,31904,9.0,71972.8,-3.19,-24.05,-24.83,0,*5A
1487894528.51,31905,9.0,71944.0,-3.17,-23.53,-24.25,0,*5D
1487894529.8,31906,9.0,71954.3,-3.17,-23.53,-24.21,0,*5A
1487894531.03,31907,9.0,71964.0,-3.13,-23.79,-24.47,0,*57
1487894532.29,31908,9.0,71962.8,-3.17,-23.85,-24.57,0,*5E
1487894533.54,31909,9.0,71966.3,-3.17,-23.85,-24.57,0,*5F
1487894534.83,31910,9.0,71988.8,-3.17,-23.99,-24.67,0,*59
1487894536.03,31911,9.0,71996.8,-3.19,-23.89,-24.51,0,*52
1487894537.24,31912,9.0,72014.3,-3.19,-23.89,-24.51,0,*51
1487894538.5,31913,9.0,72020.3,-3.19,-24.15,-24.71,0,*50
1487894539.76,31914,9.0,72010.0,-3.19,-23.99,-24.67,0,*53
1487894540.99,31915,9.0,72004.0,-3.19,-23.99,-24.57,0,*51
1487894542.2,31916,9.0,72042.8,-3.19,-24.05,-24.57,0,*50
1487894543.46,31917,9.0,72030.0,-3.19,-23.99,-24.67,0,*50
1487894544.72,31918,9.0,72020.0,-3.21,-23.79,-24.41,0,*5E
1487894546.0,31919,9.0,72004.5,-3.21,-23.49,-23.95,0,*52
1487894547.21,31920,9.0,72004.8,-3.19,-23.09,-23.75,0,*59
1487894548.45,31921,9.0,71994.5,-3.19,-22.93,-23.53,0,*5E
1487894549.7,31922,9.0,71994.3,-3.19,-23.03,-23.69,0,*5C
1487894550.99,31923,9.0,71986.5,-3.17,-23.19,-23.85,0,*5A
1487894552.21,31924,9.0,71990.0,-3.17,-23.39,-23.89,0,*53
1487894553.45,31925,9.0,71982.8,-3.17,-23.43,-24.05,0,*5C
1487894554.7,31926,9.0,71990.8,-3.17,-23.43,-24.15,0,*5E
1487894555.95,31927,9.0,72000.8,-3.13,-23.69,-24.31,0,*55
1487894557.23,31928,9.0,71998.5,-3.17,-23.53,-24.11,0,*55
1487894558.47,31929,9.0,71998.3,-3.17,-23.59,-24.35,0,*58
1487894559.74,31930,9.0,71990.5,-3.17,-23.53,-24.15,0,*58
1487894561.0,31931,9.0,71982.5,-3.17,-23.19,-23.89,0,*55
1487894562.28,31932,9.0,71996.8,-3.13,-23.03,-23.69,0,*57
1487894563.51,31933,9.0,71982.3,-3.13,-23.13,-23.79,0,*56
1487894564.76,31934,9.0,71998.5,-3.13,-23.39,-23.99,0,*57
1487894566.01,31935,9.0,72006.5,-3.13,-23.65,-24.31,0,*5A
1487894567.26,31936,9.0,72022.0,-3.17,-23.69,-24.51,0,*57
1487894568.52,31937,9.0,72052.3,-3.13,-23.65,-24.31,0,*58
1487894569.8,31938,9.0,72014.5,-3.13,-23.19,-23.85,0,*54
1487894571.07,31939,9.0,72000.8,-3.13,-23.13,-23.85,0,*5F
1487894572.32,31940,9.0,71980.8,-3.13,-23.03,-23.79,0,*53
1487894573.58,31941,9.0,71966.5,-3.13,-23.03,-23.79,0,*52
1487894574.85,31942,9.0,71974.5,-3.13,-23.23,-23.99,0,*5D
1487894576.13,31943,9.0,71970.5,-3.13,-23.23,-23.95,0,*50
1487894577.4,31944,9.0,71970.3,-3.13,-23.33,-24.11,0,*5D
1487894578.66,31945,9.0,71968.3,-3.11,-23.33,-24.15,0,*5A
1487894579.9,31946,9.0,71974.3,-3.13,-23.39,-24.11,0,*55
1487894581.12,31947,9.0,71980.8,-3.11,-23.39,-24.15,0,*52
1487894582.36,31948,9.0,71982.3,-3.11,-23.53,-24.31,0,*57
1487894583.61,31949,9.0,71974.8,-3.13,-23.65,-24.31,0,*51
1487894584.87,31950,9.0,71980.3,-3.13,-23.65,-24.35,0,*5D
1487894586.12,31951,9.0,71986.5,-3.17,-23.85,-24.57,0,*52
1487894587.38,31952,9.0,71994.8,-3.17,-23.85,-24.51,0,*57
1487894588.61,31953,9.0,71984.3,-3.13,-23.79,-24.47,0,*56
1487894589.89,31954,9.0,72014.0,-3.17,-23.85,-24.67,0,*54
1487894591.17,31955,9.0,71994.3,-3.17,-23.85,-24.67,0,*55
1487894592.44,31956,9.0,71990.0,-3.17,-23.43,-24.21,0,*5E
1487894593.7,31957,9.0,72000.8,-3.17,-23.43,-24.25,0,*5B
1487894594.94,31958,9.0,72008.3,-3.17,-23.75,-24.51,0,*52
1487894596.2,31959,9.0,72000.0,-3.17,-23.59,-24.25,0,*5E
1487894597.47,31960,9.0,72008.3,-3.17,-23.75,-24.41,0,*58
1487894598.7,31961,9.0,72006.3,-3.17,-23.59,-24.35,0,*54
1487894599.98,31962,9.0,71996.5,-3.13,-23.49,-24.21,0,*57
1487894601.23,31963,9.0,71998.5,-3.17,-23.69,-24.57,0,*51
1487894602.52,31964,9.0,72012.8,-3.21,-23.65,-24.71,0,*5B
1487894603.73,31965,9.0,72030.5,-3.19,-23.59,-24.51,0,*5C
1487894604.96,31966,9.0,72006.8,-3.19,-23.39,-24.25,0,*5A
1487894606.21,31967,8.94,71992.3,-3.19,-23.23,-24.15,0,*53
1487894607.49,31968,9.0,71964.3,-3.21,-23.29,-24.11,0,*59
1487894608.71,31969,9.0,71944.0,-3.19,-23.39,-24.15,0,*56
1487894609.97,31970,9.0,71922.0,-3.17,-23.53,-24.35,0,*5E
1487894611.23,31971,9.0,71900.8,-3.19,-23.53,-24.41,0,*52
1487894612.49,31972,9.0,71942.5,-3.17,-23.53,-24.51,0,*5E
1487894613.75,31973,9.0,71926.3,-3.19,-23.53,-24.41,0,*50
1487894614.98,31974,9.0,71944.3,-3.19,-23.59,-24.67,0,*59
1487894616.24,31975,8.94,71930.3,-3.19,-23.53,-24.41,0,*56
1487894617.48,31976,9.0,71922.5,-3.21,-23.59,-24.61,0,*56
1487894618.71,31977,9.0,71934.8,-3.19,-23.65,-24.57,0,*56
1487894619.95,31978,9.0,71932.0,-3.21,-23.75,-24.61,0,*56
1487894621.19,31979,9.0,71954.8,-3.19,-23.75,-24.67,0,*5A
1487894622.42,31980,9.0,71952.8,-3.23,-23.59,-24.41,0,*5F
1487894623.71,31981,9.0,71956.0,-3.21,-23.49,-24.41,0,*5D
1487894624.94,31982,9.0,71944.5,-3.21,-23.59,-24.57,0,*58
1487894626.18,31983,9.0,71946.5,-3.21,-23.13,-24.05,0,*50
1487894627.44,31984,9.0,71962.5,-3.21,-23.43,-24.41,0,*52
1487894628.67,31985,9.0,71992.5,-3.19,-23.53,-24.57,0,*5E
1487894629.91,31986,8.94,72016.3,-3.21,-23.59,-24.61,0,*59
1487894631.16,31987,9.0,71938.3,-3.19,-23.33,-24.15,0,*5C
1487894632.43,31988,8.94,71914.5,-3.21,-22.53,-23.49,0,*51
1487894633.71,31989,9.0,71950.0,-3.17,-22.31,-23.29,0,*57
1487894634.98,31990,8.94,71924.5,-3.17,-22.47,-23.43,0,*52
1487894636.21,31991,9.0,71932.3,-3.17,-22.57,-23.59,0,*59
1487894637.47,31992,9.0,71940.0,-3.17,-23.09,-23.99,0,*5C
1487894638.72,31993,8.94,71946.8,-3.13,-23.13,-24.11,0,*55
1487894639.97,31994,9.0,71956.0,-3.13,-23.13,-24.11,0,*52
1487894641.25,31995,9.0,71948.0,-3.13,-23.19,-24.15,0,*5D
1487894642.47,31996,9.0,71940.3,-3.13,-23.39,-24.47,0,*5B
1487894643.73,31997,9.0,71900.0,-3.17,-23.23,-24.35,0,*50
1487894644.98,31998,9.0,71876.3,-3.13,-22.87,-23.99,0,*55
1487894646.24,31999,9.0,71912.0,-3.13,-23.13,-24.21,0,*5C
1487894647.49,32000,8.94,71908.3,-3.13,-23.23,-24.31,0,*54
1487894648.75,32001,8.94,71886.0,-3.13,-23.19,-24.31,0,*5C
1487894650.01,32002,8.94,71828.8,-3.17,-23.23,-24.35,0,*56
1487894651.26,32003,9.0,71840.0,-3.17,-23.29,-24.35,0,*5D
1487894652.51,32004,9.0,71862.5,-3.17,-23.23,-24.51,0,*52
1487894653.75,32005,9.0,71880.5,-3.13,-23.13,-24.31,0,*52
1487894654.98,32006,9.0,71902.0,-3.13,-23.13,-24.31,0,*51
1487894656.21,32007,8.94,71940.8,-3.17,-23.43,-24.57,0,*51
1487894657.48,32008,9.0,71964.3,-3.13,-23.53,-24.77,0,*59
1487894658.74,32009,9.0,71936.5,-3.13,-23.53,-24.77,0,*58
1487894660.02,32010,9.0,71942.3,-3.13,-23.03,-24.21,0,*56
1487894661.25,32011,9.0,71956.5,-3.13,-23.39,-24.51,0,*59
1487894662.54,32012,9.0,71952.5,-3.17,-23.53,-24.71,0,*50
1487894663.8,32013,9.0,71966.5,-3.13,-23.53,-24.97,0,*5D
1487894665.06,32014,9.0,71960.0,-3.17,-23.43,-24.71,0,*57
1487894666.32,32015,8.94,71960.8,-3.17,-23.23,-24.51,0,*52
1487894667.57,32016,9.0,71950.3,-3.17,-23.23,-24.57,0,*57
1487894668.83,32017,8.94,71944.5,-3.17,-23.29,-24.51,0,*5A
1487894670.09,32018,8.94,71942.5,-3.13,-23.23,-24.61,0,*58
1487894671.34,32019,9.0,71946.3,-3.13,-23.23,-24.51,0,*5A
1487894672.59,32020,9.0,71950.5,-3.13,-23.39,-24.67,0,*5E
1487894673.85,32021,9.0,71944.0,-3.17,-23.59,-24.87,0,*53
1487894675.11,32022,9.0,71932.5,-3.13,-23.49,-24.77,0,*5A
1487894676.34,32023,9.0,71946.3,-3.13,-23.39,-24.77,0,*5C
1487894677.59,32024,9.0,71940.8,-3.13,-23.03,-24.47,0,*51
1487894678.83,32025,9.0,71942.5,-3.13,-22.97,-24.31,0,*5D
1487894680.06,32026,9.0,71926.3,-3.13,-22.97,-24.47,0,*5F
1487894681.3,32027,9.0,71924.0,-3.13,-23.13,-24.51,0,*54
1487894682.57,32028,8.94,71930.5,-3.13,-23.23,-24.67,0,*5D
1487894683.79,32029,8.94,71934.3,-3.11,-23.39,-24.67,0,*55
1487894685.05,32030,9.0,71926.0,-3.13,-23.39,-24.83,0,*55
1487894686.3,32031,9.0,71934.5,-3.13,-23.65,-25.13,0,*55
1487894687.57,32032,9.0,71966.8,-3.13,-23.65,-25.09,0,*5D
1487894688.82,32033,9.0,71894.8,-3.17,-23.19,-24.57,0,*59
1487894690.1,32034,9.0,71980.3,-3.13,-23.33,-24.67,0,*51
1487894691.31,32035,9.0,71954.3,-3.11,-23.13,-24.51,0,*55
1487894692.59,32036,8.94,71914.3,-3.17,-23.23,-24.67,0,*56
1487894693.84,32037,9.0,71938.8,-3.13,-23.39,-24.83,0,*52
1487894695.1,32038,8.94,71936.8,-3.17,-23.59,-25.03,0,*56
1487894696.36,32039,9.0,71950.8,-3.17,-23.53,-25.13,0,*5C
1487894697.62,32040,9.0,71964.8,-3.13,-23.53,-24.97,0,*5B
1487894698.91,32041,8.94,71966.3,-3.17,-23.53,-25.03,0,*52
1487894700.16,32042,9.0,71972.0,-3.13,-23.65,-25.19,0,*5B
1487894701.4,32043,9.0,71970.5,-3.17,-23.59,-25.19,0,*51
1487894702.61,32044,9.0,71980.8,-3.19,-23.75,-25.23,0,*5F
1487894703.82,32045,9.0,71942.8,-3.19,-23.59,-25.23,0,*50
1487894705.06,32046,9.0,71942.5,-3.21,-23.59,-25.19,0,*51
1487894706.29,32047,9.0,71930.8,-3.19,-23.53,-24.97,0,*56
1487894707.5,32048,9.0,71980.5,-3.19,-23.39,-24.97,0,*55
1487894708.7,32049,9.0,71946.3,-3.19,-22.87,-24.35,0,*58
1487894709.91,32050,9.0,71992.0,-3.19,-23.09,-24.57,0,*53
1487894711.12,32051,9.0,71984.0,-3.19,-23.43,-24.97,0,*50
1487894712.33,32052,8.94,72034.5,-3.19,-23.43,-24.97,0,*53
1487894713.57,32053,9.0,71978.8,-3.19,-22.77,-24.35,0,*5C
1487894714.82,32054,8.94,71934.3,-3.19,-22.31,-23.99,0,*58
1487894716.05,32055,9.0,71980.0,-3.19,-22.57,-24.15,0,*5A
1487894717.34,32056,9.0,71960.5,-3.17,-22.73,-24.25,0,*52
1487894718.62,32057,9.0,71964.8,-3.13,-22.73,-24.21,0,*53
1487894719.85,32058,8.94,71992.3,-3.13,-23.13,-24.77,0,*58
1487894721.08,32059,8.94,71986.5,-3.13,-23.39,-25.13,0,*52
1487894722.32,32060,9.0,71984.5,-3.17,-23.43,-25.19,0,*5B
1487894723.6,32061,8.94,71986.8,-3.17,-23.23,-24.87,0,*5A
1487894724.89,32062,8.94,71990.8,-3.17,-23.03,-24.71,0,*52
1487894726.12,32063,8.94,72000.0,-3.13,-22.67,-24.47,0,*51
1487894727.35,32064,9.0,71962.8,-3.13,-22.57,-24.31,0,*54
1487894728.61,32065,8.94,71974.3,-3.13,-23.19,-24.77,0,*5C
1487894729.87,32066,8.94,71954.0,-3.13,-23.03,-24.77,0,*54
1487894731.13,32067,8.94,71970.3,-3.13,-22.73,-24.51,0,*57
1487894732.35,32068,8.94,71978.5,-3.11,-22.41,-24.15,0,*5B
1487894733.64,32069,8.94,71964.8,-3.13,-22.21,-23.85,0,*50
1487894734.88,32070,8.94,71984.3,-3.11,-22.53,-24.21,0,*56
1487894736.11,32071,9.0,71988.0,-3.11,-22.37,-23.99,0,*51
1487894737.34,32072,8.94,71990.3,-3.11,-22.41,-23.99,0,*53
1487894738.56,32073,8.94,72008.8,-3.11,-22.41,-24.15,0,*51
1487894739.79,32074,8.94,71986.8,-3.09,-22.07,-23.75,0,*5C
1487894741.05,32075,8.94,72086.8,-3.09,-22.17,-23.89,0,*5F
1487894742.31,32076,9.0,72082.5,-3.09,-22.63,-24.41,0,*5C
1487894743.54,32077,8.94,72024.5,-3.05,-22.03,-23.75,0,*57
1487894744.75,32078,8.94,71952.3,-3.03,-21.47,-23.09,0,*56
1487894745.99,32079,8.94,71952.0,-3.03,-21.47,-23.19,0,*56
1487894747.23,32080,9.0,71942.3,-3.03,-21.47,-23.19,0,*50
1487894748.49,32081,8.94,71942.3,-3.01,-21.63,-23.33,0,*5D
1487894749.74,32082,8.94,71946.0,-3.01,-21.93,-23.65,0,*52
1487894750.98,32083,8.94,71964.8,-2.99,-22.17,-23.89,0,*5E
1487894752.22,32084,8.94,71978.0,-2.99,-22.47,-24.31,0,*58
1487894753.46,32085,8.94,71980.8,-2.99,-22.77,-24.47,0,*5B
1487894754.71,32086,9.0,71988.8,-2.97,-22.37,-24.11,0,*51
1487894755.96,32087,8.94,72006.8,-2.97,-22.37,-23.99,0,*57
1487894757.18,32088,8.94,71970.0,-2.97,-22.07,-23.79,0,*55
1487894758.41,32089,8.94,71910.5,-2.97,-22.07,-23.75,0,*58
1487894759.64,32090,9.0,71872.5,-2.97,-22.03,-23.75,0,*54
1487894760.88,32091,8.94,71894.3,-2.97,-21.93,-23.75,0,*5F
1487894762.11,32092,8.94,71962.0,-2.95,-21.77,-23.53,0,*50
1487894763.38,32093,9.0,71906.3,-2.91,-21.53,-23.23,0,*54
1487894764.65,32094,8.94,71888.0,-2.89,-21.27,-23.09,0,*51
1487894765.88,32095,8.94,71902.3,-2.87,-21.63,-23.33,0,*57
1487894767.11,32096,8.94,71890.3,-2.87,-21.73,-23.49,0,*58
1487894768.35,32097,8.94,71850.0,-2.87,-21.93,-23.49,0,*57
1487894769.61,32098,8.94,71764.5,-2.85,-21.77,-23.49,0,*50
1487894770.85,32099,8.94,71806.8,-2.85,-21.73,-23.43,0,*5F
1487894772.09,32100,8.94,71836.8,-2.83,-21.73,-23.49,0,*52
1487894773.37,32101,8.94,71866.5,-2.85,-21.67,-23.49,0,*50
1487894774.58,32102,9.0,71886.5,-2.83,-21.93,-23.75,0,*51
1487894775.83,32103,9.0,71886.8,-2.81,-21.73,-23.53,0,*58
1487894777.07,32104,8.94,71886.3,-2.79,-22.21,-23.89,0,*5B
1487894778.26,32105,8.94,71874.3,-2.79,-22.07,-23.89,0,*5E
1487894779.51,32106,8.94,71806.8,-2.81,-22.11,-23.95,0,*50
1487894780.72,32107,9.0,71918.8,-2.79,-22.11,-23.75,0,*58
1487894781.98,32108,8.94,71934.5,-2.77,-21.93,-23.49,0,*5F
1487894783.26,32109,8.94,71916.3,-2.77,-21.57,-23.33,0,*5B
1487894784.51,32110,8.94,71936.8,-2.77,-21.63,-23.19,0,*5C
1487894785.8,32111,8.94,71970.5,-2.77,-21.83,-23.53,0,*5D
1487894787.08,32112,9.0,71948.5,-2.75,-22.21,-24.11,0,*56
1487894788.36,32113,9.0,71940.3,-2.75,-22.21,-24.11,0,*57
1487894789.64,32114,8.94,71912.0,-2.75,-22.31,-24.11,0,*51
1487894790.9,32115,9.0,71996.0,-2.75,-22.37,-24.11,0,*56
1487894792.16,32116,9.0,72048.5,-2.73,-22.47,-24.41,0,*51
1487894793.39,32117,8.94,72042.8,-2.77,-22.57,-24.51,0,*54
1487894794.66,32118,8.94,71952.3,-2.75,-22.53,-24.41,0,*5C
1487894795.94,32119,8.94,71878.3,-2.75,-22.21,-24.11,0,*5D
1487894797.23,32120,8.94,71840.8,-2.75,-22.17,-23.99,0,*55
1487894798.51,32121,9.0,71880.8,-2.75,-22.31,-24.15,0,*53
1487894799.77,32122,8.94,71850.5,-2.73,-22.31,-24.25,0,*55
1487894801.04,32123,8.94,71874.5,-2.69,-22.47,-24.25,0,*5E
1487894802.27,32124,8.94,71868.5,-2.73,-22.73,-24.47,0,*51
1487894803.48,32125,8.94,71864.5,-2.69,-22.63,-24.51,0,*5D
1487894804.72,32126,8.94,71846.8,-2.69,-22.47,-24.35,0,*5A
1487894805.93,32127,9.0,71854.3,-2.73,-22.53,-24.47,0,*50
1487894807.13,32128,8.94,71856.3,-2.73,-22.63,-24.57,0,*5D
1487894808.34,32129,8.94,71874.3,-2.73,-22.53,-24.47,0,*5E
1487894809.6,32130,9.0,71886.0,-2.73,-22.21,-24.15,0,*54
1487894810.81,32131,8.94,71886.3,-2.73,-22.07,-24.15,0,*51
1487894812.06,32132,8.94,71880.0,-2.69,-22.11,-24.21,0,*59
1487894813.32,32133,8.94,71890.8,-2.69,-22.31,-24.25,0,*5E
1487894814.53,32134,8.94,71906.0,-2.69,-22.03,-24.05,0,*5A
1487894815.77,32135,8.94,71916.5,-2.73,-22.37,-24.25,0,*55
1487894817.03,32136,8.94,71924.0,-2.69,-22.17,-24.11,0,*58
1487894818.27,32137,8.94,71896.5,-2.69,-22.27,-24.21,0,*59
1487894819.51,32138,9.0,71950.3,-2.67,-22.57,-24.51,0,*58
1487894820.77,32139,8.94,71966.3,-2.67,-22.77,-24.93,0,*55
1487894821.99,32140,8.94,71974.5,-2.69,-22.97,-25.09,0,*59
1487894823.21,32141,8.94,71982.3,-2.69,-23.09,-25.19,0,*5F
1487894824.47,32142,8.94,71998.0,-2.73,-23.19,-25.29,0,*55
1487894825.68,32143,8.94,72002.0,-2.69,-23.13,-25.23,0,*5F
1487894826.92,32144,8.94,71992.0,-2.73,-23.13,-25.29,0,*59
1487894828.16,32145,8.94,72016.0,-2.73,-23.43,-25.45,0,*57
1487894829.4,32146,8.94,72006.3,-2.73,-23.59,-25.55,0,*5E
1487894830.61,32147,8.94,71994.5,-2.73,-23.43,-25.39,0,*5E
1487894831.85,32148,8.94,71996.0,-2.73,-23.33,-25.39,0,*56
1487894833.12,32149,8.94,71948.3,-2.75,-23.43,-25.55,0,*5C
1487894834.36,32150,8.94,71914.5,-2.75,-22.97,-24.97,0,*53
1487894835.62,32151,8.94,71922.3,-2.75,-23.03,-25.23,0,*50
1487894836.86,32152,8.94,71928.0,-2.73,-23.19,-25.23,0,*5E
1487894838.12,32153,8.94,71956.8,-2.75,-23.03,-25.13,0,*51
1487894839.39,32154,8.94,71946.0,-2.75,-23.29,-25.23,0,*5D
1487894840.67,32155,8.94,71986.0,-2.75,-23.33,-25.29,0,*5D
1487894841.96,32156,8.94,71980.5,-2.77,-23.33,-25.29,0,*5C
1487894843.21,32157,8.94,71962.5,-2.77,-23.39,-25.45,0,*5D
1487894844.48,32158,8.94,71980.0,-2.77,-23.53,-25.61,0,*58
1487894845.74,32159,8.94,72010.0,-2.77,-23.49,-25.49,0,*58
1487894847.0,32160,8.94,71998.0,-2.73,-23.49,-25.45,0,*5A
1487894848.26,32161,8.94,71994.0,-2.75,-23.69,-25.61,0,*59
1487894849.52,32162,8.94,71996.0,-2.77,-23.89,-25.97,0,*5F
1487894850.76,32163,8.94,71998.8,-2.79,-24.05,-26.17,0,*58
1487894852.02,32164,8.94,72000.8,-2.79,-23.99,-26.13,0,*59
1487894853.23,32165,8.94,72000.0,-2.79,-23.89,-25.87,0,*57
1487894854.49,32166,8.94,71990.5,-2.81,-23.75,-25.81,0,*56
1487894855.75,32167,8.94,71974.8,-2.81,-23.89,-25.81,0,*54
1487894856.97,32168,8.94,71974.8,-2.81,-23.89,-25.87,0,*5D
1487894858.21,32169,8.94,71960.8,-2.79,-23.69,-25.65,0,*59
1487894859.44,32170,8.94,71954.5,-2.81,-23.75,-25.87,0,*57
1487894860.7,32171,8.94,71942.5,-2.81,-23.89,-25.81,0,*53
1487894861.92,32172,8.94,71966.5,-2.81,-23.89,-25.91,0,*51
1487894863.18,32173,8.94,71986.8,-2.81,-23.95,-26.07,0,*51
1487894864.42,32174,8.94,72002.3,-2.81,-23.89,-26.03,0,*5F
1487894865.64,32175,8.94,72016.3,-2.83,-23.99,-26.23,0,*5F
1487894866.88,32176,8.94,71988.5,-2.83,-23.85,-25.87,0,*5C
1487894868.14,32177,8.94,71994.3,-2.85,-23.95,-25.91,0,*5D
1487894869.4,32178,8.94,71990.3,-2.83,-23.95,-25.97,0,*52
1487894870.63,32179,8.94,71998.3,-2.85,-23.79,-25.87,0,*56
1487894871.93,32180,8.94,71990.0,-2.85,-23.95,-25.97,0,*53
1487894873.19,32181,8.94,71988.3,-2.85,-23.85,-25.91,0,*55
1487894874.42,32182,8.94,71988.5,-2.83,-23.95,-25.91,0,*51
1487894875.67,32183,8.94,71988.0,-2.85,-23.85,-25.91,0,*57
1487894876.96,32184,8.94,71970.0,-2.85,-23.29,-25.29,0,*55
1487894878.25,32185,8.94,71982.8,-2.85,-23.33,-25.45,0,*55
1487894879.49,32186,8.94,71970.8,-2.85,-23.43,-25.39,0,*5A
1487894880.78,32187,8.94,71952.8,-2.85,-22.77,-24.71,0,*50
1487894882.05,32188,8.94,71964.5,-2.83,-22.77,-24.71,0,*59
1487894883.28,32189,8.94,71948.3,-2.83,-23.33,-25.39,0,*54
1487894884.51,32190,8.94,71972.5,-2.83,-23.29,-25.23,0,*5C
1487894885.77,32191,8.94,71970.0,-2.83,-22.47,-24.25,0,*53
1487894887.03,32192,8.94,71942.3,-2.83,-22.31,-24.25,0,*51
1487894888.23,32193,8.94,71960.8,-2.79,-22.67,-24.47,0,*52
1487894889.47,32194,8.94,71816.3,-2.79,-22.93,-24.87,0,*52
1487894890.72,32195,8.94,71790.8,-2.81,-22.83,-24.67,0,*5B
1487894891.98,32196,8.94,71898.3,-2.81,-22.83,-24.71,0,*5F
1487894893.21,32197,8.94,71930.8,-2.79,-22.87,-24.71,0,*5D
1487894894.47,32198,8.94,71946.5,-2.77,-23.09,-25.03,0,*5F
1487894895.73,32199,8.94,71924.0,-2.77,-22.93,-24.87,0,*51
1487894897.0,32200,8.94,71936.8,-2.77,-23.53,-25.49,0,*5C
1487894898.26,32201,8.94,71920.5,-2.77,-23.69,-25.61,0,*5E
1487894899.54,32202,8.94,71924.3,-2.77,-23.53,-25.45,0,*52
1487894900.83,32203,8.94,71936.3,-2.77,-23.53,-25.45,0,*53
1487894902.08,32204,8.94,71958.3,-2.77,-23.85,-25.87,0,*51
1487894903.37,32205,8.94,71952.8,-2.77,-23.99,-26.13,0,*53
1487894904.66,32206,8.94,71958.5,-2.77,-24.21,-26.17,0,*50
1487894905.89,32207,8.94,71922.5,-2.79,-23.89,-25.81,0,*56
1487894907.11,32208,8.94,71946.8,-2.79,-23.75,-25.65,0,*50
1487894908.35,32209,8.94,71974.8,-2.79,-23.85,-25.65,0,*5E
1487894909.61,32210,8.94,71968.0,-2.81,-23.29,-25.23,0,*55
1487894910.84,32211,8.94,71940.3,-2.79,-23.23,-25.13,0,*5A
1487894912.1,32212,8.94,71956.3,-2.77,-23.19,-25.13,0,*5E
1487894913.39,32213,8.94,71978.3,-2.77,-23.53,-25.45,0,*52